• In Hungary
  • List of Countries
  • For 7 days
  • Water Temperature
  • Satellite Maps
  • Weather Map
  • News
  • Weather Widgets
  • user-avatar
    Login

    Hourly Weather Stillwater

    Today, 18 September, Tuesday

    Time Temperature Precipitation Wind Pressure Humidity
    00:00 +27°C° 0 mm 3 mps 736 mmHg 73%
    01:00 +27°C° 0 mm 3 mps 736 mmHg 76%
    02:00 +27°C° 0 mm 3 mps 736 mmHg 78%
    03:00 +26°C° 0 mm 3 mps 736 mmHg 80%
    04:00 +26°C° 0 mm 3 mps 736 mmHg 81%
    05:00 +26°C° 0 mm 3 mps 736 mmHg 82%
    06:00 +25°C° 0 mm 2 mps 736 mmHg 79%
    07:00 +27°C° 0 mm 3 mps 736 mmHg 74%
    08:00 +29°C° 0 mm 3 mps 737 mmHg 69%
    09:00 +30°C° 0 mm 4 mps 737 mmHg 64%
    10:00 +33°C° 0 mm 4 mps 737 mmHg 59%
    11:00 +34°C° 0 mm 5 mps 736 mmHg 54%
    12:00 +36°C° 0 mm 5 mps 736 mmHg 49%
    13:00 +36°C° 0 mm 5 mps 736 mmHg 48%
    14:00 +36°C° 0 mm 5 mps 735 mmHg 48%
    15:00 +36°C° 0 mm 5 mps 735 mmHg 47%
    16:00 +35°C° 0 mm 5 mps 734 mmHg 52%
    17:00 +34°C° 0 mm 4 mps 734 mmHg 56%
    18:00 +33°C° 0 mm 3 mps 734 mmHg 61%
    19:00 +32°C° 0 mm 4 mps 734 mmHg 62%
    20:00 +30°C° 0 mm 4 mps 734 mmHg 64%
    21:00 +29°C° 0 mm 4 mps 735 mmHg 66%
    22:00 +28°C° 0 mm 4 mps 735 mmHg 68%
    23:00 +28°C° 0 mm 4 mps 735 mmHg 69%

    Tomorrow, 19 September, Wednesday

    Time Temperature Precipitation Wind Pressure Humidity
    00:00 +28°C° 0 mm 4 mps 735 mmHg 70%
    01:00 +27°C° 0 mm 4 mps 735 mmHg 71%
    02:00 +27°C° 0 mm 4 mps 734 mmHg 71%
    03:00 +27°C° 0 mm 4 mps 734 mmHg 72%
    04:00 +27°C° 0 mm 4 mps 734 mmHg 74%
    05:00 +26°C° 0 mm 4 mps 735 mmHg 75%
    06:00 +26°C° 0 mm 4 mps 735 mmHg 77%
    07:00 +28°C° 0 mm 4 mps 735 mmHg 72%
    08:00 +29°C° 0 mm 5 mps 735 mmHg 67%
    09:00 +32°C° 0 mm 6 mps 736 mmHg 62%
    10:00 +33°C° 0 mm 6 mps 736 mmHg 57%
    11:00 +34°C° 0 mm 6 mps 736 mmHg 53%
    12:00 +36°C° 0 mm 6 mps 736 mmHg 48%
    13:00 +36°C° 0 mm 6 mps 735 mmHg 48%
    14:00 +36°C° 0 mm 7 mps 734 mmHg 47%
    15:00 +36°C° 0 mm 7 mps 734 mmHg 47%
    16:00 +35°C° 0 mm 6 mps 733 mmHg 52%
    17:00 +34°C° 0 mm 5 mps 733 mmHg 56%
    18:00 +33°C° 0 mm 5 mps 733 mmHg 61%
    19:00 +32°C° 0 mm 5 mps 733 mmHg 63%
    20:00 +30°C° 0 mm 5 mps 734 mmHg 65%
    21:00 +29°C° 0 mm 5 mps 734 mmHg 67%
    22:00 +28°C° 0 mm 5 mps 734 mmHg 69%
    23:00 +28°C° 0 mm 5 mps 734 mmHg 71%

    Day after tomorrow, 20 September, Thursday

    Time Temperature Precipitation Wind Pressure Humidity
    00:00 +28°C° 0 mm 6 mps 734 mmHg 73%
    01:00 +28°C° 0 mm 6 mps 734 mmHg 75%
    02:00 +27°C° 0 mm 5 mps 734 mmHg 77%
    03:00 +27°C° 0 mm 5 mps 734 mmHg 79%
    04:00 +26°C° 0 mm 5 mps 734 mmHg 81%
    05:00 +26°C° 0 mm 5 mps 734 mmHg 82%
    06:00 +26°C° 0 mm 5 mps 734 mmHg 84%
    07:00 +27°C° 0 mm 6 mps 735 mmHg 79%
    08:00 +28°C° 0 mm 7 mps 735 mmHg 73%
    09:00 +31°C° 0 mm 8 mps 735 mmHg 67%
    10:00 +32°C° 0 mm 8 mps 735 mmHg 62%
    11:00 +33°C° 0 mm 8 mps 735 mmHg 58%
    12:00 +34°C° 0 mm 8 mps 735 mmHg 53%
    13:00 +35°C° 0 mm 8 mps 734 mmHg 51%
    14:00 +35°C° 0 mm 8 mps 734 mmHg 49%
    15:00 +35°C° 0 mm 8 mps 733 mmHg 47%
    16:00 +34°C° 0 mm 7 mps 733 mmHg 51%
    17:00 +33°C° 0 mm 6 mps 732 mmHg 56%
    18:00 +32°C° 0 mm 5 mps 732 mmHg 60%
    19:00 +30°C° 0 mm 6 mps 733 mmHg 62%
    20:00 +29°C° 0 mm 6 mps 733 mmHg 64%
    21:00 +29°C° 0 mm 6 mps 734 mmHg 66%
    22:00 +28°C° 0.2 mm 6 mps 734 mmHg 69%
    23:00 +28°C° 0.2 mm 5 mps 735 mmHg 73%

    21 September, Friday

    Time Temperature Precipitation Wind Pressure Humidity
    00:00 +27°C° 0.2 mm 5 mps 735 mmHg 76%
    01:00 +26°C° 1.9 mm 4 mps 735 mmHg 81%
    02:00 +26°C° 1.9 mm 3 mps 735 mmHg 86%
    03:00 +25°C° 1.9 mm 2 mps 735 mmHg 90%
    04:00 +25°C° 1.5 mm 2 mps 736 mmHg 89%
    05:00 +25°C° 1.5 mm 2 mps 736 mmHg 87%
    06:00 +25°C° 1.5 mm 1 mps 736 mmHg 86%
    07:00 +26°C° 0.3 mm 1 mps 737 mmHg 81%
    08:00 +28°C° 0.3 mm 2 mps 738 mmHg 76%
    09:00 +29°C° 0.3 mm 2 mps 738 mmHg 70%
    10:00 +28°C° 1.2 mm 3 mps 739 mmHg 71%
    11:00 +28°C° 1.2 mm 5 mps 739 mmHg 71%
    12:00 +28°C° 1.2 mm 6 mps 740 mmHg 72%
    13:00 +27°C° 0.3 mm 6 mps 740 mmHg 73%
    14:00 +26°C° 0.3 mm 7 mps 740 mmHg 75%
    15:00 +24°C° 0.3 mm 7 mps 740 mmHg 76%
    16:00 +23°C° 0.1 mm 6 mps 740 mmHg 76%
    17:00 +23°C° 0.1 mm 6 mps 740 mmHg 77%
    18:00 +22°C° 0.1 mm 6 mps 740 mmHg 77%
    19:00 +21°C° 0.1 mm 5 mps 741 mmHg 75%
    20:00 +21°C° 0.1 mm 5 mps 741 mmHg 72%
    21:00 +20°C° 0.1 mm 5 mps 742 mmHg 70%
    22:00 +19°C° 0.5 mm 5 mps 742 mmHg 72%
    23:00 +19°C° 0.5 mm 5 mps 742 mmHg 74%

    22 September, Saturday

    Time Temperature Precipitation Wind Pressure Humidity
    00:00 +18°C° 0.5 mm 4 mps 742 mmHg 76%
    01:00 +18°C° 0.5 mm 4 mps 742 mmHg 76%
    02:00 +18°C° 0.5 mm 4 mps 741 mmHg 77%
    03:00 +18°C° 0.5 mm 4 mps 741 mmHg 77%
    04:00 +17°C° 0.9 mm 4 mps 741 mmHg 78%
    05:00 +17°C° 0.9 mm 4 mps 741 mmHg 80%
    06:00 +17°C° 0.9 mm 4 mps 741 mmHg 82%
    07:00 +17°C° 0.7 mm 4 mps 741 mmHg 83%
    08:00 +17°C° 0.7 mm 4 mps 742 mmHg 83%
    09:00 +16°C° 0.7 mm 5 mps 742 mmHg 84%
    10:00 +18°C° 0.4 mm 4 mps 741 mmHg 84%
    11:00 +18°C° 0.4 mm 4 mps 741 mmHg 85%
    12:00 +19°C° 0.4 mm 4 mps 741 mmHg 85%
    13:00 +19°C° 1.4 mm 4 mps 740 mmHg 87%
    14:00 +19°C° 1.4 mm 3 mps 740 mmHg 89%
    15:00 +19°C° 1.4 mm 3 mps 739 mmHg 90%
    16:00 +19°C° 0.7 mm 3 mps 739 mmHg 91%
    17:00 +19°C° 0.7 mm 3 mps 739 mmHg 92%
    18:00 +19°C° 0.7 mm 3 mps 739 mmHg 93%
    19:00 +19°C° 0.1 mm 3 mps 739 mmHg 94%
    20:00 +19°C° 0.1 mm 3 mps 739 mmHg 95%
    21:00 +19°C° 0.1 mm 2 mps 739 mmHg 95%
    22:00 +19°C° 0.2 mm 2 mps 739 mmHg 96%
    23:00 +19°C° 0.2 mm 2 mps 739 mmHg 96%

    23 September, Sunday

    Time Temperature Precipitation Wind Pressure Humidity
    00:00 +20°C° 0.2 mm 1 mps 738 mmHg 96%
    01:00 +20°C° 0.2 mm 1 mps 738 mmHg 97%
    02:00 +20°C° 0.2 mm 1 mps 738 mmHg 97%
    03:00 +20°C° 0.2 mm 1 mps 737 mmHg 97%
    04:00 +21°C° 0 mm 1 mps 737 mmHg 97%
    05:00 +21°C° 0 mm 1 mps 737 mmHg 97%
    06:00 +21°C° 0 mm 1 mps 737 mmHg 97%
    07:00 +21°C° 0 mm 1 mps 737 mmHg 95%
    08:00 +22°C° 0 mm 1 mps 738 mmHg 93%
    09:00 +23°C° 0 mm 2 mps 738 mmHg 91%
    10:00 +24°C° 0 mm 2 mps 738 mmHg 87%
    11:00 +25°C° 0 mm 2 mps 738 mmHg 83%
    12:00 +26°C° 0 mm 1 mps 737 mmHg 79%
    13:00 +27°C° 0.1 mm 1 mps 737 mmHg 76%
    14:00 +27°C° 0.1 mm 1 mps 736 mmHg 73%
    15:00 +28°C° 0.1 mm 1 mps 736 mmHg 69%
    16:00 +28°C° 0.1 mm 2 mps 736 mmHg 72%
    17:00 +27°C° 0.1 mm 2 mps 736 mmHg 75%
    18:00 +27°C° 0.1 mm 2 mps 735 mmHg 78%
    19:00 +26°C° 0 mm 2 mps 736 mmHg 83%
    20:00 +25°C° 0 mm 2 mps 736 mmHg 87%
    21:00 +24°C° 0 mm 3 mps 736 mmHg 92%
    22:00 +22°C° 0 mm 3 mps 736 mmHg 94%
    23:00 +23°C° 0 mm 2 mps 736 mmHg 95%
    Show more